Location: Unspecified
(48.8656°N, 0.0000°E)
Time: 18:20:15
(UTC+00:00)

Vanguard 3 - Pass Details

Date: 18 June 2019
Orbit: 508 x 3263 km, 33.3° (Epoch: 24 August)

Event Time Altitude Azimuth Distance (km) Brightness Sun altitude
Rises 14:51:31 0° 244° (WSW) 4,250 11.5 48.0°
Reaches altitude 10° 14:56:07 10° 225° (SW) 2,745 10.7 47.3°
Maximum altitude 14:59:38 15° 191° (S) 2,005 9.7 46.8°
Drops below altitude 10° 15:02:27 10° 154° (SSE) 2,098 9.3 46.4°
Sets 15:05:16 0° 130° (SE) 2,788 9.7 45.9°
